This is the latest recevied weather packets stored in our database for station/object K5KVN. If no packets are shown the sender has not sent any weather packets the latest 10 day(s).
| Time | Temp. | Humidity | Pressure | Rain* | Wind** | Luminosity | Snow |
|---|---|---|---|---|---|---|---|
| 1787960385 | 32.22° C | 41% | 1018.4 hPa | 0 mm | - | - | - |
| 1787959783 | 32.78° C | 39% | 1018.5 hPa | 0 mm | - | - | - |
| 1787959183 | 32.78° C | 40% | 1018.5 hPa | 0 mm | - | - | - |
| 1787958583 | 32.78° C | 39% | 1018.4 hPa | 0 mm | - | - | - |
| 1787958044 | 33.33° C | 38% | 1018.5 hPa | 0 mm | - | - | - |
| 1787957444 | 33.33° C | 38% | 1018.5 hPa | 0 mm | - | - | - |
| 1787956783 | 33.33° C | 37% | 1018.5 hPa | 0 mm | - | - | - |
| 1787956182 | 33.89° C | 36% | 1018.5 hPa | 0 mm | - | - | - |
| 1787955581 | 33.89° C | 36% | 1018.6 hPa | 0 mm | - | - | - |
| 1787954982 | 33.89° C | 37% | 1018.5 hPa | 0 mm | - | - | - |
| 1787954381 | 34.44° C | 34% | 1018.6 hPa | 0 mm | - | - | - |
| 1787953781 | 34.44° C | 35% | 1018.8 hPa | 0 mm | - | - | - |
| 1787953180 | 35° C | 34% | 1018.9 hPa | 0 mm | - | - | - |
| 1787952641 | 35° C | 35% | 1018.9 hPa | 0 mm | - | - | - |
| 1787951982 | 35° C | 35% | 1018.9 hPa | 0 mm | - | - | - |
| 1787951443 | 34.44° C | 37% | 1019.1 hPa | 0 mm | - | - | - |
| 1787950778 | 34.44° C | 36% | 1019.2 hPa | 0 mm | - | - | - |
| 1787950177 | 34.44° C | 38% | 1019.3 hPa | 0 mm | - | - | - |
| 1787949575 | 34.44° C | 37% | 1019.4 hPa | 0 mm | - | - | - |
| 1787948975 | 34.44° C | 39% | 1019.5 hPa | 0 mm | - | - | - |
| 1787948373 | 33.89° C | 40% | 1019.5 hPa | 0 mm | - | - | - |
| 1787947774 | 33.89° C | 39% | 1019.6 hPa | 0 mm | - | - | - |
| 1787947234 | 33.89° C | 39% | 1019.8 hPa | 0 mm | - | - | - |
| 1787946574 | 33.89° C | 39% | 1019.9 hPa | 0 mm | - | - | - |
| 1787945974 | 34.44° C | 38% | 1020 hPa | 0 mm | - | - | - |
* Rain latest hour (hover to see other rain measurements)
** Current wind speed in m/s (hover to see current wind gust speed)